Time,TemperatureF,DewpointF,PressureIn,WindDirection,WindDirectionDegrees,WindSpeedMPH,WindSpeedGustMPH,Humidity,HourlyPrecipIn,Conditions,Clouds,dailyrainin,SoftwareType,DateUTC
2013-02-22 00:01:00,20.0,13.0,-100.00,NE,50,2.0,5.0,73,-99.99,,,-99.99,,2013-02-22 06:01:00,
2013-02-22 00:22:00,21.0,14.0,-100.00,NE,40,2.0,4.0,75,-99.99,,,-99.99,,2013-02-22 06:22:00,
2013-02-22 00:32:00,21.0,14.0,-100.00,NE,40,2.0,4.0,75,-99.99,,,-99.99,,2013-02-22 06:32:00,
2013-02-22 00:42:00,21.0,14.0,-100.00,NE,40,2.0,4.0,75,-99.99,,,-99.99,,2013-02-22 06:42:00,
2013-02-22 00:52:00,21.0,14.0,-100.00,NE,40,2.0,4.0,75,-99.99,,,-99.99,,2013-02-22 06:52:00,
2013-02-22 01:01:00,21.0,14.0,-100.00,NE,40,2.0,4.0,75,-99.99,,,-99.99,,2013-02-22 07:01:00,
2013-02-22 01:22:00,23.0,18.0,-100.00,East,80,7.0,16.0,83,-99.99,,,-99.99,,2013-02-22 07:22:00,
2013-02-22 01:32:00,23.0,18.0,-100.00,East,80,7.0,16.0,83,-99.99,,,-99.99,,2013-02-22 07:32:00,
2013-02-22 01:42:00,23.0,18.0,-100.00,East,80,7.0,16.0,83,-99.99,,,-99.99,,2013-02-22 07:42:00,
2013-02-22 01:52:00,23.0,18.0,-100.00,East,80,7.0,16.0,83,-99.99,,,-99.99,,2013-02-22 07:52:00,
2013-02-22 02:01:00,23.0,18.0,-100.00,East,80,7.0,16.0,83,-99.99,,,-99.99,,2013-02-22 08:01:00,
2013-02-22 02:02:00,22.0,21.0,-100.00,ENE,60,5.0,8.0,94,-99.99,,,-99.99,,2013-02-22 08:02:00,
2013-02-22 02:21:00,22.0,21.0,-100.00,ENE,60,5.0,8.0,94,-99.99,,,-99.99,,2013-02-22 08:21:00,
2013-02-22 02:32:00,22.0,21.0,-100.00,ENE,60,5.0,8.0,94,-99.99,,,-99.99,,2013-02-22 08:32:00,
2013-02-22 02:42:00,22.0,21.0,-100.00,ENE,60,5.0,8.0,94,-99.99,,,-99.99,,2013-02-22 08:42:00,
2013-02-22 02:52:00,22.0,21.0,-100.00,ENE,60,5.0,8.0,94,-99.99,,,-99.99,,2013-02-22 08:52:00,
2013-02-22 03:22:00,22.0,21.0,-100.00,NE,50,6.0,15.0,97,-99.99,,,-99.99,,2013-02-22 09:22:00,
2013-02-22 03:32:00,22.0,21.0,-100.00,NE,50,6.0,15.0,97,-99.99,,,-99.99,,2013-02-22 09:32:00,
2013-02-22 03:42:00,22.0,21.0,-100.00,NE,50,6.0,15.0,97,-99.99,,,-99.99,,2013-02-22 09:42:00,
2013-02-22 03:52:00,22.0,21.0,-100.00,NE,50,6.0,15.0,97,-99.99,,,-99.99,,2013-02-22 09:52:00,
2013-02-22 04:01:00,22.0,21.0,-100.00,NE,50,6.0,15.0,97,-99.99,,,-99.99,,2013-02-22 10:01:00,
2013-02-22 04:22:00,22.0,21.0,-100.00,NE,50,3.0,12.0,97,-99.99,,,-99.99,,2013-02-22 10:22:00,
2013-02-22 04:32:00,22.0,21.0,-100.00,NE,50,3.0,12.0,97,-99.99,,,-99.99,,2013-02-22 10:32:00,
2013-02-22 04:42:00,22.0,21.0,-100.00,NE,50,3.0,12.0,97,-99.99,,,-99.99,,2013-02-22 10:42:00,
2013-02-22 04:52:00,22.0,21.0,-100.00,NE,50,3.0,12.0,97,-99.99,,,-99.99,,2013-02-22 10:52:00,
2013-02-22 05:01:00,22.0,21.0,-100.00,NE,50,3.0,12.0,97,-99.99,,,-99.99,,2013-02-22 11:01:00,
2013-02-22 05:02:00,22.0,21.0,-100.00,ENE,65,4.0,7.0,97,-99.99,,,-99.99,,2013-02-22 11:02:00,
2013-02-22 05:22:00,22.0,21.0,-100.00,ENE,65,4.0,7.0,97,-99.99,,,-99.99,,2013-02-22 11:22:00,
2013-02-22 05:32:00,22.0,21.0,-100.00,ENE,65,4.0,7.0,97,-99.99,,,-99.99,,2013-02-22 11:32:00,
2013-02-22 05:42:00,22.0,21.0,-100.00,ENE,65,4.0,7.0,97,-99.99,,,-99.99,,2013-02-22 11:42:00,
2013-02-22 05:52:00,22.0,21.0,-100.00,ENE,65,4.0,7.0,97,-99.99,,,-99.99,,2013-02-22 11:52:00,
2013-02-22 06:22:00,22.0,21.0,-100.00,NNE,25,1.0,4.0,98,-99.99,,,-99.99,,2013-02-22 12:22:00,
2013-02-22 06:32:00,22.0,21.0,-100.00,NNE,25,1.0,4.0,98,-99.99,,,-99.99,,2013-02-22 12:32:00,
2013-02-22 06:42:00,22.0,21.0,-100.00,NNE,25,1.0,4.0,98,-99.99,,,-99.99,,2013-02-22 12:42:00,
2013-02-22 06:52:00,22.0,21.0,-100.00,NNE,25,1.0,4.0,98,-99.99,,,-99.99,,2013-02-22 12:52:00,
2013-02-22 07:01:00,22.0,21.0,-100.00,NNE,25,1.0,4.0,98,-99.99,,,-99.99,,2013-02-22 13:01:00,
2013-02-22 07:22:00,21.0,21.0,-100.00,NE,40,1.0,3.0,98,-99.99,,,-99.99,,2013-02-22 13:22:00,
2013-02-22 07:32:00,21.0,21.0,-100.00,NE,40,1.0,3.0,98,-99.99,,,-99.99,,2013-02-22 13:32:00,
2013-02-22 07:42:00,21.0,21.0,-100.00,NE,40,1.0,3.0,98,-99.99,,,-99.99,,2013-02-22 13:42:00,
2013-02-22 07:52:00,21.0,21.0,-100.00,NE,40,1.0,3.0,98,-99.99,,,-99.99,,2013-02-22 13:52:00,
2013-02-22 08:01:00,21.0,21.0,-100.00,NE,40,1.0,3.0,98,-99.99,,,-99.99,,2013-02-22 14:01:00,
2013-02-22 08:22:00,22.0,22.0,-100.00,NE,50,2.0,6.0,98,-99.99,,,-99.99,,2013-02-22 14:22:00,
2013-02-22 08:32:00,22.0,22.0,-100.00,NE,50,2.0,6.0,98,-99.99,,,-99.99,,2013-02-22 14:32:00,
2013-02-22 08:42:00,22.0,22.0,-100.00,NE,50,2.0,6.0,98,-99.99,,,-99.99,,2013-02-22 14:42:00,
2013-02-22 08:53:00,22.0,22.0,-100.00,NE,50,2.0,6.0,98,-99.99,,,-99.99,,2013-02-22 14:53:00,
2013-02-22 09:01:00,22.0,22.0,-100.00,NE,50,2.0,6.0,98,-99.99,,,-99.99,,2013-02-22 15:01:00,
2013-02-22 09:22:00,24.0,23.0,-100.00,NE,40,1.0,4.0,98,-99.99,,,-99.99,,2013-02-22 15:22:00,
2013-02-22 09:32:00,24.0,23.0,-100.00,NE,40,1.0,4.0,98,-99.99,,,-99.99,,2013-02-22 15:32:00,
2013-02-22 09:42:00,24.0,23.0,-100.00,NE,40,1.0,4.0,98,-99.99,,,-99.99,,2013-02-22 15:42:00,
2013-02-22 09:52:00,24.0,23.0,-100.00,NE,40,1.0,4.0,98,-99.99,,,-99.99,,2013-02-22 15:52:00,
2013-02-22 10:01:00,24.0,23.0,-100.00,NE,40,1.0,4.0,98,-99.99,,,-99.99,,2013-02-22 16:01:00,
2013-02-22 10:22:00,26.0,25.0,-100.00,NNE,30,4.0,6.0,94,-99.99,,,-99.99,,2013-02-22 16:22:00,
2013-02-22 10:32:00,26.0,25.0,-100.00,NNE,30,4.0,6.0,94,-99.99,,,-99.99,,2013-02-22 16:32:00,
2013-02-22 10:42:00,26.0,25.0,-100.00,NNE,30,4.0,6.0,94,-99.99,,,-99.99,,2013-02-22 16:42:00,
2013-02-22 10:52:00,26.0,25.0,-100.00,NNE,30,4.0,6.0,94,-99.99,,,-99.99,,2013-02-22 16:52:00,
2013-02-22 11:01:00,26.0,25.0,-100.00,NNE,30,4.0,6.0,94,-99.99,,,-99.99,,2013-02-22 17:01:00,
2013-02-22 11:22:00,29.0,24.0,-100.00,NNE,30,3.0,7.0,84,-99.99,,,-99.99,,2013-02-22 17:22:00,
2013-02-22 11:32:00,29.0,24.0,-100.00,NNE,30,3.0,7.0,84,-99.99,,,-99.99,,2013-02-22 17:32:00,
2013-02-22 11:42:00,29.0,24.0,-100.00,NNE,30,3.0,7.0,84,-99.99,,,-99.99,,2013-02-22 17:42:00,
2013-02-22 11:52:00,29.0,24.0,-100.00,NNE,30,3.0,7.0,84,-99.99,,,-99.99,,2013-02-22 17:52:00,
2013-02-22 12:01:00,29.0,24.0,-100.00,NNE,30,3.0,7.0,84,-99.99,,,-99.99,,2013-02-22 18:01:00,
2013-02-22 12:23:00,31.0,24.0,-100.00,NE,45,4.0,6.0,76,-99.99,,,-99.99,,2013-02-22 18:23:00,
2013-02-22 12:32:00,31.0,24.0,-100.00,NE,45,4.0,6.0,76,-99.99,,,-99.99,,2013-02-22 18:32:00,
2013-02-22 12:42:00,31.0,24.0,-100.00,NE,45,4.0,6.0,76,-99.99,,,-99.99,,2013-02-22 18:42:00,
2013-02-22 12:52:00,31.0,24.0,-100.00,NE,45,4.0,6.0,76,-99.99,,,-99.99,,2013-02-22 18:52:00,
2013-02-22 13:01:00,31.0,24.0,-100.00,NE,45,4.0,6.0,76,-99.99,,,-99.99,,2013-02-22 19:01:00,
2013-02-22 13:21:00,32.0,25.0,-100.00,NNE,25,3.0,5.0,74,-99.99,,,-99.99,,2013-02-22 19:21:00,
2013-02-22 13:31:00,32.0,25.0,-100.00,NNE,25,3.0,5.0,74,-99.99,,,-99.99,,2013-02-22 19:31:00,
2013-02-22 13:42:00,32.0,25.0,-100.00,NNE,25,3.0,5.0,74,-99.99,,,-99.99,,2013-02-22 19:42:00,
2013-02-22 13:52:00,32.0,25.0,-100.00,NNE,25,3.0,5.0,74,-99.99,,,-99.99,,2013-02-22 19:52:00,
2013-02-22 14:01:00,32.0,25.0,-100.00,NNE,25,3.0,5.0,74,-99.99,,,-99.99,,2013-02-22 20:01:00,
2013-02-22 14:22:00,35.0,25.0,-100.00,NW,325,1.0,2.0,67,-99.99,,,-99.99,,2013-02-22 20:22:00,
2013-02-22 14:32:00,35.0,25.0,-100.00,NW,325,1.0,2.0,67,-99.99,,,-99.99,,2013-02-22 20:32:00,
2013-02-22 14:42:00,35.0,25.0,-100.00,NW,325,1.0,2.0,67,-99.99,,,-99.99,,2013-02-22 20:42:00,
2013-02-22 14:52:00,35.0,25.0,-100.00,NW,325,1.0,2.0,67,-99.99,,,-99.99,,2013-02-22 20:52:00,
2013-02-22 15:01:00,35.0,25.0,-100.00,NW,325,1.0,2.0,67,-99.99,,,-99.99,,2013-02-22 21:01:00,
2013-02-22 15:22:00,32.0,23.0,-100.00,WNW,300,3.0,5.0,68,-99.99,,,-99.99,,2013-02-22 21:22:00,
2013-02-22 15:32:00,32.0,23.0,-100.00,WNW,300,3.0,5.0,68,-99.99,,,-99.99,,2013-02-22 21:32:00,
2013-02-22 15:42:00,32.0,23.0,-100.00,WNW,300,3.0,5.0,68,-99.99,,,-99.99,,2013-02-22 21:42:00,
2013-02-22 15:52:00,32.0,23.0,-100.00,WNW,300,3.0,5.0,68,-99.99,,,-99.99,,2013-02-22 21:52:00,
2013-02-22 16:01:00,32.0,23.0,-100.00,WNW,300,3.0,5.0,68,-99.99,,,-99.99,,2013-02-22 22:01:00,
2013-02-22 16:22:00,30.0,24.0,-100.00,NNW,335,2.0,6.0,79,-99.99,,,-99.99,,2013-02-22 22:22:00,
2013-02-22 16:32:00,30.0,24.0,-100.00,NNW,335,2.0,6.0,79,-99.99,,,-99.99,,2013-02-22 22:32:00,
2013-02-22 16:42:00,30.0,24.0,-100.00,NNW,335,2.0,6.0,79,-99.99,,,-99.99,,2013-02-22 22:42:00,
2013-02-22 16:52:00,30.0,24.0,-100.00,NNW,335,2.0,6.0,79,-99.99,,,-99.99,,2013-02-22 22:52:00,
2013-02-22 17:01:00,30.0,24.0,-100.00,NNW,335,2.0,6.0,79,-99.99,,,-99.99,,2013-02-22 23:01:00,
2013-02-22 17:21:00,29.0,24.0,-100.00,NNW,340,1.0,6.0,81,-99.99,,,-99.99,,2013-02-22 23:21:00,
2013-02-22 17:32:00,29.0,24.0,-100.00,NNW,340,1.0,6.0,81,-99.99,,,-99.99,,2013-02-22 23:32:00,
2013-02-22 17:42:00,29.0,24.0,-100.00,NNW,340,1.0,6.0,81,-99.99,,,-99.99,,2013-02-22 23:42:00,
2013-02-22 17:52:00,29.0,24.0,-100.00,NNW,340,1.0,6.0,81,-99.99,,,-99.99,,2013-02-22 23:52:00,
2013-02-22 18:01:00,29.0,24.0,-100.00,NNW,340,1.0,6.0,81,-99.99,,,-99.99,,2013-02-23 00:01:00,
2013-02-22 18:21:00,26.0,24.0,-100.00,NW,305,3.0,6.0,90,-99.99,,,-99.99,,2013-02-23 00:21:00,
2013-02-22 18:32:00,26.0,24.0,-100.00,NW,305,3.0,6.0,90,-99.99,,,-99.99,,2013-02-23 00:32:00,
2013-02-22 18:42:00,26.0,24.0,-100.00,NW,305,3.0,6.0,90,-99.99,,,-99.99,,2013-02-23 00:42:00,
2013-02-22 18:52:00,26.0,24.0,-100.00,NW,305,3.0,6.0,90,-99.99,,,-99.99,,2013-02-23 00:52:00,
2013-02-22 19:01:00,26.0,24.0,-100.00,NW,305,3.0,6.0,90,-99.99,,,-99.99,,2013-02-23 01:01:00,
2013-02-22 19:21:00,26.0,24.0,-100.00,WNW,285,5.0,8.0,93,-99.99,,,-99.99,,2013-02-23 01:21:00,
2013-02-22 19:32:00,26.0,24.0,-100.00,WNW,285,5.0,8.0,93,-99.99,,,-99.99,,2013-02-23 01:32:00,
2013-02-22 19:42:00,26.0,24.0,-100.00,WNW,285,5.0,8.0,93,-99.99,,,-99.99,,2013-02-23 01:42:00,
2013-02-22 19:52:00,26.0,24.0,-100.00,WNW,285,5.0,8.0,93,-99.99,,,-99.99,,2013-02-23 01:52:00,
2013-02-22 20:01:00,26.0,24.0,-100.00,WNW,285,5.0,8.0,93,-99.99,,,-99.99,,2013-02-23 02:01:00,
2013-02-22 20:22:00,26.0,25.0,-100.00,WNW,300,4.0,9.0,96,-99.99,,,-99.99,,2013-02-23 02:22:00,
2013-02-22 20:32:00,26.0,25.0,-100.00,WNW,300,4.0,9.0,96,-99.99,,,-99.99,,2013-02-23 02:32:00,
2013-02-22 20:42:00,26.0,25.0,-100.00,WNW,300,4.0,9.0,96,-99.99,,,-99.99,,2013-02-23 02:42:00,
2013-02-22 20:52:00,26.0,25.0,-100.00,WNW,300,4.0,9.0,96,-99.99,,,-99.99,,2013-02-23 02:52:00,
2013-02-22 21:01:00,26.0,25.0,-100.00,WNW,300,4.0,9.0,96,-99.99,,,-99.99,,2013-02-23 03:01:00,
2013-02-22 21:22:00,26.0,25.0,-100.00,NW,305,5.0,7.0,96,-99.99,,,-99.99,,2013-02-23 03:22:00,
2013-02-22 21:32:00,26.0,25.0,-100.00,NW,305,5.0,7.0,96,-99.99,,,-99.99,,2013-02-23 03:32:00,
2013-02-22 21:42:00,26.0,25.0,-100.00,NW,305,5.0,7.0,96,-99.99,,,-99.99,,2013-02-23 03:42:00,
2013-02-22 21:52:00,26.0,25.0,-100.00,NW,305,5.0,7.0,96,-99.99,,,-99.99,,2013-02-23 03:52:00,
2013-02-22 22:01:00,26.0,25.0,-100.00,NW,305,5.0,7.0,96,-99.99,,,-99.99,,2013-02-23 04:01:00,
2013-02-22 22:02:00,25.0,24.0,-100.00,WNW,285,5.0,11.0,97,-99.99,,,-99.99,,2013-02-23 04:02:00,
2013-02-22 22:21:00,25.0,24.0,-100.00,WNW,285,5.0,11.0,97,-99.99,,,-99.99,,2013-02-23 04:21:00,
2013-02-22 22:32:00,25.0,24.0,-100.00,WNW,285,5.0,11.0,97,-99.99,,,-99.99,,2013-02-23 04:32:00,
2013-02-22 22:42:00,25.0,24.0,-100.00,WNW,285,5.0,11.0,97,-99.99,,,-99.99,,2013-02-23 04:42:00,
2013-02-22 22:52:00,25.0,24.0,-100.00,WNW,285,5.0,11.0,97,-99.99,,,-99.99,,2013-02-23 04:52:00,
2013-02-22 23:23:00,25.0,24.0,-100.00,WNW,290,5.0,8.0,96,-99.99,,,-99.99,,2013-02-23 05:23:00,
2013-02-22 23:33:00,25.0,24.0,-100.00,WNW,290,5.0,8.0,96,-99.99,,,-99.99,,2013-02-23 05:33:00,
2013-02-22 23:42:00,25.0,24.0,-100.00,WNW,290,5.0,8.0,96,-99.99,,,-99.99,,2013-02-23 05:42:00,
2013-02-22 23:52:00,25.0,24.0,-100.00,WNW,290,5.0,8.0,96,-99.99,,,-99.99,,2013-02-23 05:52:00,